When you browse on this site, cookies collect data to enhance your experience and personalize the content and advertising you see.
Visit our Privacy Policy to learn more. By continuing to use the site, you agree to this use of cookies and data.
  • In Romania
  • List of Countries
  • For 7 days
  • Water Temperature
  • Weather Map
  • Weather Widgets
  • user-avatar
    Login

    Hourly Weather Bobo-Dioulasso

    Today, 14 November, Thursday

    Time Temperature Precipitation Wind Pressure Humidity
    00:00 +28°C° 0 mm 1 mps 721 mmHg 35%
    01:00 +27°C° 0 mm 1 mps 721 mmHg 34%
    02:00 +27°C° 0 mm 1 mps 720 mmHg 33%
    03:00 +26°C° 0 mm 1 mps 720 mmHg 32%
    04:00 +25°C° 0 mm 1 mps 720 mmHg 31%
    05:00 +25°C° 0 mm 1 mps 721 mmHg 30%
    06:00 +24°C° 0 mm 2 mps 721 mmHg 29%
    07:00 +26°C° 0 mm 2 mps 722 mmHg 26%
    08:00 +28°C° 0 mm 3 mps 722 mmHg 24%
    09:00 +30°C° 0 mm 3 mps 723 mmHg 21%
    10:00 +33°C° 0 mm 3 mps 723 mmHg 19%
    11:00 +35°C° 0 mm 4 mps 722 mmHg 17%
    12:00 +36°C° 0 mm 4 mps 722 mmHg 15%
    13:00 +37°C° 0 mm 4 mps 721 mmHg 15%
    14:00 +37°C° 0 mm 3 mps 721 mmHg 14%
    15:00 +37°C° 0 mm 3 mps 720 mmHg 14%
    16:00 +36°C° 0 mm 2 mps 720 mmHg 17%
    17:00 +34°C° 0 mm 2 mps 720 mmHg 19%
    18:00 +31°C° 0 mm 1 mps 720 mmHg 22%
    19:00 +30°C° 0 mm 1 mps 720 mmHg 23%
    20:00 +29°C° 0 mm 1 mps 721 mmHg 24%
    21:00 +26°C° 0 mm 0 mps 722 mmHg 25%
    22:00 +26°C° 0 mm 0 mps 721 mmHg 25%
    23:00 +25°C° 0 mm 0 mps 721 mmHg 26%

    Tomorrow, 15 November, Friday

    Time Temperature Precipitation Wind Pressure Humidity
    00:00 +25°C° 0 mm 0 mps 721 mmHg 27%
    01:00 +24°C° 0 mm 0 mps 721 mmHg 28%
    02:00 +24°C° 0 mm 0 mps 720 mmHg 28%
    03:00 +25°C° 0 mm 1 mps 720 mmHg 29%
    04:00 +23°C° 0 mm 0 mps 720 mmHg 30%
    05:00 +22°C° 0 mm 0 mps 720 mmHg 30%
    06:00 +22°C° 0 mm 0 mps 721 mmHg 31%
    07:00 +24°C° 0 mm 0 mps 721 mmHg 28%
    08:00 +28°C° 0 mm 1 mps 722 mmHg 26%
    09:00 +30°C° 0 mm 1 mps 723 mmHg 23%
    10:00 +32°C° 0 mm 1 mps 722 mmHg 21%
    11:00 +35°C° 0 mm 2 mps 722 mmHg 19%
    12:00 +36°C° 0 mm 2 mps 721 mmHg 17%
    13:00 +37°C° 0 mm 2 mps 721 mmHg 16%
    14:00 +37°C° 0 mm 2 mps 720 mmHg 16%
    15:00 +37°C° 0 mm 2 mps 719 mmHg 16%
    16:00 +35°C° 0 mm 1 mps 719 mmHg 18%
    17:00 +33°C° 0 mm 1 mps 719 mmHg 21%
    18:00 +31°C° 0 mm 1 mps 719 mmHg 23%
    19:00 +30°C° 0 mm 1 mps 720 mmHg 24%
    20:00 +28°C° 0 mm 0 mps 720 mmHg 24%
    21:00 +27°C° 0 mm 0 mps 721 mmHg 25%
    22:00 +27°C° 0 mm 0 mps 721 mmHg 25%
    23:00 +27°C° 0 mm 0 mps 721 mmHg 25%

    Day after tomorrow, 16 November, Saturday

    Time Temperature Precipitation Wind Pressure Humidity
    00:00 +27°C° 0 mm 0 mps 721 mmHg 25%
    01:00 +26°C° 0 mm 0 mps 720 mmHg 26%
    02:00 +25°C° 0 mm 0 mps 720 mmHg 27%
    03:00 +24°C° 0 mm 0 mps 720 mmHg 28%
    04:00 +24°C° 0 mm 0 mps 720 mmHg 29%
    05:00 +24°C° 0 mm 0 mps 720 mmHg 29%
    06:00 +23°C° 0 mm 0 mps 720 mmHg 30%
    07:00 +25°C° 0 mm 0 mps 721 mmHg 28%
    08:00 +27°C° 0 mm 0 mps 722 mmHg 26%
    09:00 +32°C° 0 mm 1 mps 722 mmHg 23%
    10:00 +33°C° 0 mm 1 mps 722 mmHg 21%
    11:00 +36°C° 0 mm 2 mps 721 mmHg 18%
    12:00 +37°C° 0 mm 3 mps 721 mmHg 15%
    13:00 +37°C° 0 mm 2 mps 720 mmHg 15%
    14:00 +38°C° 0 mm 2 mps 720 mmHg 15%
    15:00 +38°C° 0 mm 2 mps 719 mmHg 14%
    16:00 +36°C° 0 mm 2 mps 719 mmHg 16%
    17:00 +33°C° 0 mm 1 mps 719 mmHg 18%
    18:00 +31°C° 0 mm 1 mps 719 mmHg 20%
    19:00 +29°C° 0 mm 0 mps 719 mmHg 21%
    20:00 +28°C° 0 mm 0 mps 720 mmHg 21%
    21:00 +27°C° 0 mm 0 mps 721 mmHg 22%
    22:00 +27°C° 0 mm 0 mps 721 mmHg 22%
    23:00 +26°C° 0 mm 0 mps 721 mmHg 23%

    17 November, Sunday

    Time Temperature Precipitation Wind Pressure Humidity
    00:00 +28°C° 0 mm 1 mps 721 mmHg 23%
    01:00 +27°C° 0 mm 1 mps 720 mmHg 24%
    02:00 +27°C° 0 mm 1 mps 720 mmHg 25%
    03:00 +26°C° 0 mm 1 mps 720 mmHg 26%
    04:00 +26°C° 0 mm 1 mps 720 mmHg 26%
    05:00 +26°C° 0 mm 1 mps 720 mmHg 26%
    06:00 +25°C° 0 mm 1 mps 721 mmHg 27%
    07:00 +27°C° 0 mm 1 mps 721 mmHg 25%
    08:00 +29°C° 0 mm 2 mps 722 mmHg 23%
    09:00 +31°C° 0 mm 2 mps 722 mmHg 21%
    10:00 +34°C° 0 mm 2 mps 722 mmHg 19%
    11:00 +36°C° 0 mm 3 mps 722 mmHg 16%
    12:00 +38°C° 0 mm 3 mps 721 mmHg 14%
    13:00 +38°C° 0 mm 3 mps 721 mmHg 14%
    14:00 +39°C° 0 mm 3 mps 720 mmHg 13%
    15:00 +39°C° 0 mm 3 mps 720 mmHg 13%
    16:00 +37°C° 0 mm 2 mps 719 mmHg 15%
    17:00 +35°C° 0 mm 2 mps 719 mmHg 17%
    18:00 +32°C° 0 mm 1 mps 719 mmHg 20%
    19:00 +31°C° 0 mm 1 mps 720 mmHg 20%
    20:00 +28°C° 0 mm 0 mps 720 mmHg 21%
    21:00 +27°C° 0 mm 0 mps 721 mmHg 22%
    22:00 +27°C° 0 mm 0 mps 721 mmHg 23%
    23:00 +26°C° 0 mm 0 mps 721 mmHg 23%

    18 November, Monday

    Time Temperature Precipitation Wind Pressure Humidity
    00:00 +25°C° 0 mm 0 mps 721 mmHg 24%
    01:00 +25°C° 0 mm 0 mps 721 mmHg 25%
    02:00 +24°C° 0 mm 0 mps 720 mmHg 26%
    03:00 +24°C° 0 mm 0 mps 720 mmHg 27%
    04:00 +23°C° 0 mm 0 mps 720 mmHg 28%
    05:00 +23°C° 0 mm 0 mps 721 mmHg 28%
    06:00 +24°C° 0 mm 1 mps 721 mmHg 29%
    07:00 +27°C° 0 mm 1 mps 721 mmHg 26%
    08:00 +29°C° 0 mm 1 mps 722 mmHg 24%
    09:00 +31°C° 0 mm 2 mps 723 mmHg 21%
    10:00 +34°C° 0 mm 2 mps 722 mmHg 19%
    11:00 +36°C° 0 mm 3 mps 722 mmHg 17%
    12:00 +38°C° 0 mm 4 mps 721 mmHg 14%
    13:00 +38°C° 0 mm 4 mps 721 mmHg 14%
    14:00 +40°C° 0 mm 4 mps 720 mmHg 13%
    15:00 +39°C° 0 mm 3 mps 719 mmHg 13%
    16:00 +37°C° 0 mm 3 mps 719 mmHg 15%
    17:00 +35°C° 0 mm 2 mps 719 mmHg 17%
    18:00 +32°C° 0 mm 1 mps 719 mmHg 20%
    19:00 +31°C° 0 mm 1 mps 720 mmHg 20%
    20:00 +28°C° 0 mm 0 mps 720 mmHg 21%
    21:00 +27°C° 0 mm 0 mps 721 mmHg 22%
    22:00 +27°C° 0 mm 0 mps 721 mmHg 23%
    23:00 +26°C° 0 mm 0 mps 721 mmHg 24%

    19 November, Tuesday

    Time Temperature Precipitation Wind Pressure Humidity
    00:00 +25°C° 0 mm 0 mps 721 mmHg 24%
    01:00 +25°C° 0 mm 0 mps 721 mmHg 25%
    02:00 +26°C° 0 mm 1 mps 720 mmHg 26%
    03:00 +26°C° 0 mm 1 mps 720 mmHg 27%
    04:00 +25°C° 0 mm 1 mps 720 mmHg 27%
    05:00 +25°C° 0 mm 1 mps 721 mmHg 28%
    06:00 +25°C° 0 mm 1 mps 721 mmHg 28%
    07:00 +27°C° 0 mm 2 mps 721 mmHg 26%
    08:00 +29°C° 0 mm 3 mps 722 mmHg 24%
    09:00 +33°C° 0 mm 3 mps 722 mmHg 21%
    10:00 +35°C° 0 mm 4 mps 722 mmHg 19%
    11:00 +37°C° 0 mm 4 mps 722 mmHg 17%
    12:00 +40°C° 0 mm 5 mps 721 mmHg 14%
    13:00 +40°C° 0 mm 5 mps 721 mmHg 14%
    14:00 +40°C° 0 mm 4 mps 720 mmHg 13%
    15:00 +41°C° 0 mm 4 mps 719 mmHg 13%
    16:00 +37°C° 0 mm 3 mps 719 mmHg 15%
    17:00 +35°C° 0 mm 2 mps 719 mmHg 17%
    18:00 +32°C° 0 mm 1 mps 719 mmHg 20%
    19:00 +31°C° 0 mm 1 mps 720 mmHg 20%
    20:00 +30°C° 0 mm 1 mps 720 mmHg 21%
    21:00 +29°C° 0 mm 1 mps 721 mmHg 22%
    22:00 +29°C° 0 mm 1 mps 721 mmHg 23%
    23:00 +28°C° 0 mm 1 mps 721 mmHg 24%
    Show more